Flag for Jordan Weather past 2 weeks in Amman, Jordan

Now
81 °F

Haze.


Feels Like: 79 °F
Forecast: 59 / 75 °F
Wind: 10 mph from Northwest

Location: Amman Airport


UV Index: 7 (High)

Visibility: 2 mi


Pressure: 29.92 "Hg

Humidity: 20%

Dew point: 36 °F

Location of AmmanLocation

Historic Weather in Amman

°F

Amman temperature yesterday

Maximum temperature yesterday: 77 °F (at 2:00 PM)
Minimum temperature yesterday: 55 °F (at 3:00 AM)
Average temperature yesterday: 66 °F

Past Weeks' High & Low Weather Summary

 TemperatureHumidityPressure
High84 °F (Apr 6, 3:00 PM)88% (Apr 10, 5:00 AM)30.18 "Hg (Apr 10, 5:00 AM)
Low46 °F (Apr 4, 6:00 AM)10% (Apr 5, 6:00 PM)29.71 "Hg (Apr 1, 5:00 PM)
Average63 °F40%30.00 "Hg
* Reported Apr 1 4:00 PM — Apr 16 4:00 PM, Amman, Weather by CustomWeather, © 2014

Note: Actual official high and low records may vary slightly from our data, if they occured in-between our weather recording intervals... More about our weather records

Advertising

Historic Weather Conditions — Data for Previous 24 hours

 ConditionsComfort  
Time TempWeatherWind HumidityBarometerVisibility
4:00 PM
Apr 16
81 °FHaze.10 mph20%29.92 "Hg2 mi
3:00 PM79 °FHaze.2 mph30%29.92 "Hg2 mi
2:00 PM79 °FDuststorm.12 mph24%29.95 "Hg3 mi
1:00 PM77 °FDuststorm.12 mph26%29.95 "Hg3 mi
12:00 PM75 °FDuststorm.12 mph29%29.98 "Hg2 mi
11:00 AM75 °FDuststorm.12 mph27%29.98 "Hg1 mi
10:00 AM72 °FDuststorm.12 mph33%29.98 "Hg1 mi
9:00 AM70 °FDuststorm.7 mph35%29.98 "Hg2 mi
8:00 AM64 °FHaze.5 mph40%29.92 "Hg3 mi
7:00 AM61 °FHaze.5 mph42%29.92 "Hg2 mi
6:00 AM61 °FHaze.3 mph42%29.92 "Hg2 mi
5:00 AM63 °FHaze.No wind34%29.95 "Hg2 mi
4:00 AM63 °FHaze.No wind37%29.95 "Hg2 mi
3:00 AM63 °FHaze.No wind37%29.95 "Hg2 mi
2:00 AM66 °FHaze.6 mph30%29.98 "Hg2 mi
1:00 AM66 °FHaze.6 mph30%29.98 "Hg2 mi
12:00 AM66 °FHaze.6 mph30%29.98 "Hg2 mi
11:00 PM
Apr 15
68 °FHaze.6 mph28%30.01 "Hg3 mi
10:00 PM68 °FHaze.No wind26%29.98 "Hg3 mi
9:00 PM68 °FHaze.No wind26%29.98 "Hg3 mi
8:00 PM70 °FHaze.No wind27%29.95 "Hg3 mi
7:00 PM72 °FHaze.5 mph25%29.92 "Hg3 mi
6:00 PM73 °FHaze.2 mph25%29.92 "Hg3 mi
5:00 PM73 °FHaze.9 mph20%29.92 "Hg3 mi
Weather by CustomWeather, © 2014

See weather overview